User: anonymous   Login
Location: Unspecified
(0.0000°N, 0.0000°E)
Time: 16:20:52
(UTC+00:00)
Language:

PLEIADES 1B - Orbit

View from above orbital plane
View from above orbital plane
View from above satellite
View from above satellite

Ground track
Ground track

The orbit data is extracted from the following two-line orbital elements,

1 39019U 12068A   17054.22439696  .00000003  00000-0  10474-4 0  9990
2 39019  98.1753 131.0016 0001305  77.2524 282.8838 14.58558449225107
Epoch (UTC): 23 February 2017 05:23:07
Eccentricity: 0.0001305
inclination: 98.1753°
perigee height: 697 km
apogee height: 699 km
right ascension of ascending node: 131.0016°
argument of perigee: 77.2524°
revolutions per day: 14.58558449
mean anomaly at epoch: 282.8838°
orbit number at epoch: 22510

The dashed part of the orbit path shows where the satellite is in the earth's shadow,  

DLR